GW3674 Weather Reports


time (UTC)temp
F
wind
direction
speed
knots
gust
knots
rain 1hr
in
rain 24hr
in
rain mn
in
humidity
%
barometer
mb
20260503223024 68 210 3.5 7.8 0.00 0.00 0.00 57 1017.5
20260503221527 69 202 3.5 7.0 0.00 0.00 0.00 54 1017.5
20260503220026 70 245 2.6 7.0 0.00 0.00 0.00 49 1017.3
20260503214518 70 321 3.5 8.7 0.00 0.00 0.00 44 1017.1
20260503213024 70 292 2.6 7.8 0.00 0.00 0.00 44 1017.4
20260503211525 71 214 1.7 5.2 0.00 0.00 0.00 46 1017.2
20260503210025 69 258 0.0 4.3 0.00 0.00 0.00 47 1017.5
20260503204530 69 302 0.9 7.8 0.00 0.00 0.00 45 1017.5
20260503203020 69 263 4.3 11.3 0.00 0.00 0.00 45 1017.6
20260503201503 69 270 2.6 8.7 0.00 0.00 0.00 45 1017.9
20260503200009 68 275 1.7 7.8 0.00 0.00 0.00 47 1017.9
20260503194514 69 233 0.9 4.3 0.00 0.00 0.00 44 1018.3
20260503193006 68 295 3.5 8.7 0.00 0.01 0.00 46 1018.6
20260503191503 68 226 0.9 9.6 0.00 0.02 0.00 46 1018.8
20260503190008 68 5 0.9 9.6 0.00 0.03 0.00 47 1019.2
20260503184520 67 309 0.9 3.5 0.00 0.03 0.00 50 1019.3
20260503183014 67 302 2.6 7.8 0.00 0.05 0.00 49 1019.6
20260503181505 66 28 1.7 5.2 0.00 0.07 0.00 50 1019.7
20260503180009 66 244 0.0 6.1 0.00 0.07 0.00 49 1019.9
20260503174507 66 329 6.1 10.4 0.00 0.07 0.00 49 1019.9
20260503173022 66 98 0.9 7.8 0.00 0.07 0.00 49 1020.0
20260503171522 66 309 0.9 7.0 0.00 0.07 0.00 49 1020.3
20260503081514 48 304 0.0 0.0 0.00 0.62 0.00 80 1017.4
20260503071512 49 304 0.0 0.0 0.00 0.67 0.00 80 1017.1
20260503054516 51 340 1.7 2.6 0.00 0.72 0.00 79 1017.0
20260503053024 51 340 0.9 2.6 0.00 0.73 0.00 79 1017.0
20260503051528 51 341 0.9 2.6 0.00 0.73 0.00 79 1016.7
20260503050014 51 341 0.9 2.6 0.00 0.73 0.00 79 1016.6
20260503044529 51 341 0.0 2.6 0.00 0.73 0.00 79 1016.4
20260503043020 52 341 0.9 2.6 0.00 0.73 0.00 79 1016.2
20260503041524 52 12 0.9 2.6 0.00 0.73 0.00 79 1016.2
20260503040029 52 339 0.0 2.6 0.00 0.73 0.00 79 1016.1
20260503034515 53 329 0.9 2.6 0.00 0.73 0.73 79 1016.0
20260503033017 53 327 0.9 2.6 0.00 0.73 0.73 79 1015.7
20260503031521 53 327 0.0 1.7 0.00 0.73 0.73 79 1015.5
20260503030024 53 337 0.9 3.5 0.00 0.73 0.73 79 1015.4
20260503024528 53 350 0.9 2.6 0.00 0.73 0.73 80 1015.0
20260503023027 53 350 0.0 1.7 0.00 0.73 0.73 80 1014.8
20260503021528 54 350 1.7 5.2 0.00 0.73 0.73 80 1014.7
20260503020029 54 352 1.7 4.3 0.00 0.74 0.73 80 1014.5
20260503014526 54 343 2.6 5.2 0.00 0.74 0.73 80 1014.5
20260503013036 54 335 1.7 3.5 0.00 0.74 0.73 80 1014.1
20260503011533 54 9 0.0 3.5 0.00 0.74 0.73 80 1013.8
20260503010028 55 18 0.0 4.3 0.00 0.74 0.73 80 1013.8
20260503004532 55 360 2.6 4.3 0.00 0.74 0.73 80 1014.1
20260503003030 55 9 2.6 7.8 0.00 0.74 0.73 80 1013.7
20260503001528 55 352 2.6 5.2 0.00 0.74 0.73 79 1013.3
20260503000028 55 14 1.7 3.5 0.00 0.74 0.73 79 1013.1
20260502234527 55 5 1.7 4.3 0.00 0.74 0.73 79 1013.0
20260502233028 55 346 2.6 7.0 0.00 0.74 0.73 79 1012.9
20260502231527 55 340 2.6 8.7 0.00 0.74 0.73 79 1012.7
20260502230022 55 30 1.7 8.7 0.00 0.74 0.73 80 1012.2
20260502224520 55 350 4.3 9.6 0.00 0.74 0.73 80 1012.8